Theta_e
310 313 313 315 315 313 314 313 314 313 313 313 313 313 312 310 309 309 310 309 309 309
308 309 308 310 312 313 313 315 315 313 313 313 313 313 311 309 309 309 309 309 308 308
303 305 307 308 309 310 311 312 313 313 313 312 312 311 313 311 311 310 309 308 307 308
300 301 303 304 306 307 309 310 311 313 312 312 313 311 310 307 307 308 307 307 307 307
298 299 299 301 302 304 305 307 308 309 311 311 312 310 307 306 307 306 305 306 305 304
296 296 297 298 300 302 303 305 306 308 309 309 310 309 307 307 306 306 306 305 302 301
295 296 296 298 299 300 301 303 304 305 307 308 308 308 307 307 306 306 306 304 304 303
296 297 296 297 298 300 300 302 306 309 308 308 307 305 305 305 305 304 303 303 304 304
296 297 296 299 301 300 302 303 303 302 304 303 304 303 304 306 302 301 304 302 303 303
296 297 298 299 301 300 299 300 299 298 299 297 297 300 302 303 299 298 304 302 301 301
297 297 298 298 298 298 298 298 296 298 300 298 300 300 299 302 304 304 303 302 302 300
297 297 298 298 298 299 299 299 299 299 298 298 298 299 299 300 300 299 300 302 302 302
298 297 297 297 297 298 299 297 297 297 297 299 298 297 297 300 300 298 298 299 299 299
298 298 299 298 298 297 296 296 296 296 297 297 298 297 296 297 299 298 297 298 297 296
Wind_Speed
8 4 5 5 5 3 4 5 4 6 5 6 6 5 5 3 3 3 3 5 5 4
6 7 6 7 6 5 6 4 6 7 7 7 7 7 7 5 4 3 3 5 5 4
8 8 7 6 7 7 6 5 6 6 5 5 5 4 4 3 3 4 3 2 4 4
9 11 9 6 7 6 6 7 6 6 6 6 6 7 5 4 5 4 4 3 5 6
7 8 9 10 7 7 7 7 7 6 6 6 7 6 6 5 3 4 5 6 5 6
10 8 8 8 8 8 7 9 8 7 7 7 4 3 3 5 6 5 5 5 5 5
8 11 9 9 9 9 10 8 9 7 4 2 3 4 5 6 6 5 5 4 3 3
11 10 7 8 7 8 9 9 5 1 1 1 4 3 3 7 7 3 5 4 3 2
11 11 9 9 7 5 5 5 5 4 3 5 4 7 9 10 4 5 5 6 3 2
10 9 9 8 5 6 5 4 5 6 5 6 6 9 6 8 5 5 6 7 3 2
8 8 9 7 5 5 4 5 4 6 6 4 4 10 9 8 3 3 10 6 5 3
7 8 5 5 5 5 4 5 4 4 7 6 6 10 9 6 6 10 10 8 4 5
6 5 5 5 5 4 4 5 5 6 7 10 8 15 14 10 7 11 8 5 4 4
7 6 3 6 7 7 7 6 6 8 7 9 10 13 17 14 6 5 4 3 3 4
Wind_Direction
358 339 319 317 308 249 224 225 206 207 211 194 189 197 184 179 196 206 248 279 273 245
346 348 333 318 296 274 277 261 224 214 211 208 197 196 180 188 196 203 230 243 268 268
334 335 332 328 326 320 309 306 292 262 249 258 243 239 220 216 225 204 238 267 282 274
320 315 311 306 312 313 304 293 286 282 284 286 285 277 253 238 243 241 262 263 269 276
294 298 305 304 296 292 296 293 283 291 278 260 257 244 234 243 245 275 287 280 280 269
295 292 289 291 299 301 290 287 280 271 263 262 289 271 288 265 271 275 272 281 280 278
295 290 288 290 293 295 292 279 272 258 257 87 15 319 302 292 265 279 302 291 255 247
300 294 281 284 276 286 282 275 286 34 225 21 249 246 286 276 270 260 270 226 183 249
303 305 297 287 279 308 330 339 343 340 21 286 293 262 262 263 243 246 223 188 155 90
307 308 313 303 313 307 314 330 357 352 345 310 289 290 294 287 258 247 228 137 158 118
319 317 315 316 334 346 3 11 7 353 340 329 334 324 299 288 254 139 115 134 108 119
328 331 346 7 5 354 27 25 22 6 11 10 356 36 50 67 81 81 83 88 44 51
324 332 345 350 349 340 35 45 40 39 29 41 55 51 50 55 63 77 79 75 69 53
345 340 346 39 43 49 51 49 47 49 40 45 42 44 46 41 61 76 83 56 20 351